This is the latest recevied weather packets stored in our database for station/object NR5ON-13. If no packets are shown the sender has not sent any weather packets the latest 10 day(s).
| Time | Temp. | Humidity | Pressure | Rain* | Wind** | Luminosity | Snow |
|---|---|---|---|---|---|---|---|
| 1777816414 | 8.33° C | 67% | 1024.3 hPa | 0 mm | - | - | - |
| 1777816103 | 7.78° C | 68% | 1024.4 hPa | 0 mm | - | - | - |
| 1777815808 | 7.78° C | 69% | 1024.5 hPa | 0 mm | - | - | - |
| 1777815514 | 7.22° C | 72% | 1024.6 hPa | 0 mm | - | - | - |
| 1777815199 | 6.67° C | 73% | 1024.7 hPa | 0 mm | - | - | - |
| 1777814909 | 6.11° C | 75% | 1024.7 hPa | 0 mm | - | - | - |
| 1777814616 | 6.11° C | 77% | 1024.8 hPa | 0 mm | - | - | - |
| 1777814306 | 5.56° C | 79% | 1024.9 hPa | 0 mm | - | - | - |
| 1777814012 | 5° C | 81% | 1024.8 hPa | 0 mm | - | - | - |
| 1777813716 | 4.44° C | 82% | 1024.9 hPa | 0 mm | - | - | - |
| 1777813402 | 4.44° C | 83% | 1024.9 hPa | 0 mm | - | - | - |
| 1777813106 | 3.89° C | 83% | 1024.7 hPa | 0 mm | - | - | - |
| 1777812813 | 3.89° C | 84% | 1024.8 hPa | 0 mm | - | - | - |
| 1777812499 | 3.89° C | 84% | 1024.7 hPa | 0 mm | - | - | - |
| 1777812205 | 3.33° C | 85% | 1024.8 hPa | 0 mm | - | - | - |
| 1777811910 | 3.33° C | 84% | 1024.8 hPa | 0 mm | - | - | - |
| 1777811596 | 3.33° C | 84% | 1024.8 hPa | 0 mm | - | - | - |
| 1777811308 | 3.33° C | 85% | 1024.7 hPa | 0 mm | - | - | - |
| 1777811012 | 2.78° C | 86% | 1024.7 hPa | 0 mm | - | - | - |
| 1777810717 | 2.78° C | 85% | 1024.6 hPa | 0 mm | - | - | - |
| 1777810402 | 2.78° C | 84% | 1024.5 hPa | 0 mm | - | - | - |
| 1777810111 | 2.78° C | 84% | 1024.5 hPa | 0 mm | - | - | - |
| 1777809817 | 2.78° C | 84% | 1024.5 hPa | 0 mm | - | - | - |
| 1777809504 | 2.78° C | 84% | 1024.5 hPa | 0 mm | - | - | - |
| 1777809211 | 2.78° C | 84% | 1024.5 hPa | 0 mm | - | - | - |
* Rain latest hour (hover to see other rain measurements)
** Current wind speed in m/s (hover to see current wind gust speed)